KUIPER-00147 (65768 NORAD) Tracking and Keplerian Element Data

This shows tracking and keplerian element data for the satellite.

Feedback or suggestion? Click here.




ElementValue
Catalog65768
NameKUIPER-00147
Epoch Orbit579
Epoch Day354.25003472
Epoch Year2025
RAAN33.5011
Inclination51.891
Eccentricity0.0013924
Argument of Perigee64.299
Mean Anonmoly292.193
Mean Motion14.97991142
Decay Rate-0.00047081
L11 65768U 25217G 25354.25003472 -.00047081 00000+0 -39413-2 0 9994
L22 65768 51.8910 33.5011 0013924 64.2990 292.1930 14.97991142 5794



Live tracking and technical data element details for KUIPER-00147 (NORAD 65768). KUIPER-00147 can be tracked NOW for your location showing map with azimuth and elevation plus other details from your city location.







IsCatalogInMostPopularTable: catalog: 65768, numindb: 8
Update: records affected: 1



GetName: 65768 KUIPER-00147

Hit Count: updated at: Tue, 21 Apr 2026 19:15:02 GMT